Weather History for Ely, MN

Change the Weather History Date:

Friday, October 25, 2013

  Actual Average Record
Temperature  
Mean Temperature 34 °F -  
Max Temperature 44 °F 45 °F 64 °F (2000)
Min Temperature 24 °F 30 °F 17 °F (2002)
Degree Days  
Heating Degree Days 31    
Moisture  
Dew Point 29 °F    
Average Humidity 84    
Maximum Humidity 100    
Minimum Humidity 57    
Precipitation  
Precipitation 0.00 in - - ()
Sea Level Pressure  
Sea Level Pressure 29.88 in    
Wind  
Wind Speed 5 mph (SW)    
Max Wind Speed 17 mph    
Max Gust Speed 26 mph    
Visibility 10 miles    
Events      
Averages and records for this station are not official NWS values.
T = Trace of Precipitation, MM = Missing Value Source: NWS Daily Summary

Daily Weather History Graph

Daily Weather History Graph

Search for Another Location

Airport:

Trip Planner

Search our weather history database for the weather conditions in past years. The results will help you decide how hot, cold, wet, or windy it might be!

Date:

Astronomy

Oct. 25, 2013 Rise Set
Actual Time 7:41 AM CDT 6:00 PM CDT
Civil Twilight 7:09 AM CDT 6:32 PM CDT
Nautical Twilight 6:33 AM CDT 7:08 PM CDT
Astronomical Twilight 5:57 AM CDT 7:44 PM CDT
Moon 11:14 PM CDT (10/25) 1:29 PM CDT (10/25)
Length of Visible Light 11h 22m
Length of Day
10h 18m
Waning Gibbous, 62% of the Moon is Illuminated
Oct 25
Waning Gibbous
Oct 26
Last Quarter
Nov 3
New
Nov 9
First Quarter
Nov 17
Full

Hourly Weather History & Observations

Time (CDT) Temp. Windchill Dew Point Humidity Pressure Visibility Wind Dir Wind Speed Gust Speed Precip Events Conditions
12:13 AM 28.4 °F - 26.6 °F 93% 30.17 in 10.0 mi Calm Calm - N/A   Clear
12:32 AM 28.4 °F - 28.4 °F 100% 30.17 in 10.0 mi Calm Calm - N/A   Clear
12:53 AM 28.4 °F - 26.6 °F 93% 30.17 in 10.0 mi Calm Calm - N/A   Scattered Clouds
1:13 AM 26.6 °F - 26.6 °F 100% 30.18 in 10.0 mi Calm Calm - N/A   Clear
1:32 AM 26.6 °F - 26.6 °F 100% 30.18 in 10.0 mi Calm Calm - N/A   Clear
1:53 AM 26.6 °F 22.6 °F 26.6 °F 100% 30.17 in 10.0 mi WSW 3.5 mph - N/A   Clear
2:13 AM 26.6 °F 22.6 °F 26.6 °F 100% 30.17 in 10.0 mi SW 3.5 mph - N/A   Clear
2:32 AM 26.6 °F - 26.6 °F 100% 30.17 in 10.0 mi Calm Calm - N/A   Scattered Clouds
2:53 AM 26.6 °F - 26.6 °F 100% 30.17 in 10.0 mi Calm Calm - N/A   Scattered Clouds
3:13 AM 26.6 °F 22.6 °F 24.8 °F 93% 30.17 in 10.0 mi SSW 3.5 mph - N/A   Clear
3:32 AM 24.8 °F 19.1 °F 24.8 °F 100% 30.16 in 10.0 mi SSW 4.6 mph - N/A   Clear
3:53 AM 24.8 °F 20.5 °F 24.8 °F 100% 30.16 in 10.0 mi SW 3.5 mph - N/A   Clear
4:13 AM 24.8 °F 19.1 °F 24.8 °F 100% 30.15 in 10.0 mi SSW 4.6 mph - N/A   Clear
4:32 AM 26.6 °F 21.2 °F 24.8 °F 93% 30.14 in 10.0 mi SSW 4.6 mph - N/A   Mostly Cloudy
4:53 AM 26.6 °F 22.6 °F 26.6 °F 100% 30.15 in - SSW 3.5 mph - N/A   Overcast
5:13 AM 26.6 °F 22.6 °F 26.6 °F 100% 30.15 in 10.0 mi SW 3.5 mph - N/A   Mostly Cloudy
5:32 AM 26.6 °F 21.2 °F 24.8 °F 93% 30.15 in 10.0 mi SW 4.6 mph - N/A   Scattered Clouds
5:53 AM 26.6 °F 21.2 °F 24.8 °F 93% 30.15 in 10.0 mi SSW 4.6 mph - N/A   Clear
6:12 AM 26.6 °F 21.2 °F 24.8 °F 93% 30.14 in 10.0 mi SSW 4.6 mph - N/A   Clear
6:33 AM 26.6 °F 22.6 °F 24.8 °F 93% 30.13 in 10.0 mi SW 3.5 mph - N/A   Clear
6:53 AM 26.6 °F - 24.8 °F 93% 30.12 in 10.0 mi Calm Calm - N/A   Clear
7:12 AM 26.6 °F 22.6 °F 26.6 °F 100% 30.11 in 10.0 mi SSW 3.5 mph - N/A   Clear
7:33 AM 26.6 °F 21.2 °F 24.8 °F 93% 30.09 in 10.0 mi SSW 4.6 mph - N/A   Clear
7:53 AM 26.6 °F 22.6 °F 26.6 °F 100% 30.09 in 10.0 mi SSW 3.5 mph - N/A   Clear
8:12 AM 26.6 °F - 26.6 °F 100% 30.09 in 10.0 mi Calm Calm - N/A   Clear
8:30 AM 26.6 °F - 26.6 °F 100% 30.08 in 10.0 mi Calm Calm - N/A   Clear
8:53 AM 28.4 °F 23.3 °F 26.6 °F 93% 30.07 in 10.0 mi SSW 4.6 mph - N/A   Clear
9:13 AM 28.4 °F 22.2 °F 28.4 °F 100% 30.05 in 10.0 mi SSW 5.8 mph - N/A   Clear
9:33 AM 30.2 °F 24.3 °F 28.4 °F 93% 30.04 in 10.0 mi SSW 5.8 mph - N/A   Scattered Clouds
9:52 AM 30.2 °F 22.6 °F 28.4 °F 93% 30.04 in 10.0 mi SW 8.1 mph - N/A   Scattered Clouds
10:13 AM 30.2 °F 21.9 °F 28.4 °F 93% 30.02 in 10.0 mi SSW 9.2 mph - N/A   Scattered Clouds
10:33 AM 30.2 °F 23.4 °F 28.4 °F 93% 30.00 in 10.0 mi SW 6.9 mph - N/A   Mostly Cloudy
10:52 AM 30.2 °F 23.4 °F 28.4 °F 93% 29.99 in 10.0 mi SSW 6.9 mph - N/A   Overcast
11:13 AM 32.0 °F 23.0 °F 28.4 °F 87% 29.95 in 10.0 mi South 11.5 mph - N/A   Overcast
11:33 AM 32.0 °F 24.2 °F 28.4 °F 87% 29.93 in 10.0 mi SSW 9.2 mph 16.1 mph N/A   Overcast
11:52 AM 33.8 °F 25.3 °F 28.4 °F 81% 29.90 in 10.0 mi South 11.5 mph 18.4 mph N/A   Overcast
12:13 PM 33.8 °F 24.3 °F 28.4 °F 81% 29.87 in 10.0 mi SSW 13.8 mph 20.7 mph N/A   Overcast
12:33 PM 35.6 °F 25.5 °F 30.2 °F 81% 29.85 in 10.0 mi SW 17.3 mph 24.2 mph N/A   Mostly Cloudy
12:52 PM 35.6 °F 25.9 °F 30.2 °F 81% 29.83 in 10.0 mi SSW 16.1 mph 25.3 mph N/A   Mostly Cloudy
1:13 PM 35.6 °F 27.5 °F 30.2 °F 81% 29.80 in 10.0 mi SSW 11.5 mph 21.9 mph N/A   Overcast
1:33 PM 37.4 °F 29.3 °F 30.2 °F 75% 29.77 in 10.0 mi South 12.7 mph 20.7 mph N/A   Overcast
1:52 PM 37.4 °F 28.9 °F 28.4 °F 70% 29.72 in 10.0 mi SSW 13.8 mph 26.5 mph N/A   Overcast
2:13 PM 39.2 °F 30.8 °F 28.4 °F 65% 29.70 in 10.0 mi SSW 15.0 mph 23.0 mph N/A   Overcast
2:33 PM 39.2 °F 30.8 °F 28.4 °F 65% 29.67 in 10.0 mi SSW 15.0 mph 25.3 mph N/A   Overcast
2:52 PM 39.2 °F 30.5 °F 26.6 °F 61% 29.66 in 10.0 mi SSW 16.1 mph 26.5 mph N/A   Overcast
3:13 PM 39.2 °F 32.5 °F 26.6 °F 61% 29.65 in 10.0 mi SW 10.4 mph 24.2 mph N/A   Overcast
3:32 PM 41.0 °F 33.5 °F 26.6 °F 57% 29.63 in 10.0 mi SSW 13.8 mph 21.9 mph N/A   Overcast
3:53 PM 41.0 °F 33.1 °F 26.6 °F 57% 29.62 in 10.0 mi SSW 15.0 mph 24.2 mph N/A   Overcast
4:12 PM 41.0 °F 33.9 °F 26.6 °F 57% 29.61 in 10.0 mi SW 12.7 mph 20.7 mph N/A   Overcast
4:33 PM 42.8 °F 35.1 °F 28.4 °F 57% 29.62 in 10.0 mi SW 16.1 mph 23.0 mph N/A   Overcast
4:53 PM 42.8 °F 35.8 °F 28.4 °F 57% 29.62 in 10.0 mi SW 13.8 mph 25.3 mph N/A   Overcast
5:13 PM 42.8 °F 37.0 °F 30.2 °F 61% 29.60 in 10.0 mi SW 10.4 mph 17.3 mph N/A   Overcast
5:33 PM 42.8 °F 37.0 °F 30.2 °F 61% 29.59 in 10.0 mi SW 10.4 mph - N/A   Overcast
5:53 PM 42.8 °F 37.0 °F 30.2 °F 61% 29.59 in 10.0 mi SW 10.4 mph - N/A   Overcast
6:13 PM 42.8 °F 38.0 °F 32.0 °F 66% 29.60 in 10.0 mi SW 8.1 mph - N/A   Overcast
6:33 PM 42.8 °F 37.0 °F 32.0 °F 66% 29.60 in 10.0 mi WSW 10.4 mph - N/A   Overcast
6:53 PM 44.6 °F 40.2 °F 33.8 °F 66% 29.59 in 10.0 mi WSW 8.1 mph 16.1 mph N/A   Overcast
7:13 PM 44.6 °F 40.2 °F 33.8 °F 66% 29.58 in 10.0 mi WSW 8.1 mph - N/A   Overcast
7:33 PM 44.6 °F 40.7 °F 33.8 °F 66% 29.58 in 10.0 mi WSW 6.9 mph - N/A   Overcast
7:53 PM 44.6 °F 40.7 °F 33.8 °F 66% 29.57 in 10.0 mi West 6.9 mph - N/A   Overcast
8:13 PM 44.6 °F 40.2 °F 35.6 °F 71% 29.59 in 10.0 mi NNW 8.1 mph - N/A   Overcast
8:33 PM 41.0 °F 34.3 °F - N/A% 29.59 in - West 11.5 mph 17.3 mph N/A   Unknown
8:53 PM - - - N/A% 29.59 in - WNW 9.2 mph - N/A   Unknown
9:13 PM - - - N/A% 29.60 in - WNW 10.4 mph - N/A   Unknown
9:32 PM 41.0 °F 34.3 °F 37.4 °F 87% 29.61 in - WNW 11.5 mph 18.4 mph N/A   Mostly Cloudy
9:53 PM 39.2 °F 33.6 °F 37.4 °F 93% 29.61 in 10.0 mi NW 8.1 mph 16.1 mph N/A   Scattered Clouds
10:12 PM 39.2 °F 34.2 °F 35.6 °F 87% 29.62 in 10.0 mi WNW 6.9 mph - N/A   Scattered Clouds
10:33 PM 39.2 °F 33.6 °F 37.4 °F 93% 29.62 in 10.0 mi WNW 8.1 mph - N/A   Mostly Cloudy
10:53 PM - - - N/A% 29.63 in - WNW 11.5 mph 20.7 mph N/A   Unknown
11:13 PM 39.2 °F 30.5 °F 35.6 °F 87% 29.63 in - WNW 16.1 mph 25.3 mph N/A   Mostly Cloudy
11:32 PM 39.2 °F 33.0 °F 35.6 °F 87% 29.63 in 10.0 mi WNW 9.2 mph 16.1 mph N/A   Scattered Clouds
11:53 PM 39.2 °F 30.8 °F 33.8 °F 81% 29.64 in 10.0 mi WNW 15.0 mph 21.9 mph N/A   Scattered Clouds